This is the latest recevied weather packets stored in our database for station/object UR7D-12. If no packets are shown the sender has not sent any weather packets the latest 10 day(s).
| Time | Temp. | Humidity | Pressure | Rain* | Wind** | Luminosity | Snow |
|---|---|---|---|---|---|---|---|
| 1777479143 | 11.67° C | 33% | 994.3 hPa | 0 mm | - | - | - |
| 1777478843 | 11.67° C | 34% | 994.3 hPa | 0 mm | - | - | - |
| 1777476139 | 12.22° C | 34% | 993.9 hPa | 0 mm | - | - | - |
| 1777473438 | 12.78° C | 35% | 993.5 hPa | 0 mm | - | - | - |
| 1777472238 | 12.78° C | 34% | 993.4 hPa | 0 mm | - | - | - |
| 1777471935 | 13.33° C | 34% | 993.3 hPa | 0 mm | - | - | - |
| 1777471036 | 13.33° C | 33% | 993.1 hPa | 0 mm | - | - | - |
| 1777470734 | 12.78° C | 34% | 993 hPa | 0 mm | - | - | - |
| 1777469833 | 13.33° C | 32% | 993.1 hPa | 0 mm | - | - | - |
| 1777469234 | 13.33° C | 33% | 993 hPa | 0 mm | - | - | - |
| 1777468633 | 13.33° C | 32% | 993 hPa | 0 mm | - | - | - |
| 1777468333 | 13.33° C | 34% | 993.1 hPa | 0 mm | - | - | - |
| 1777466830 | 13.89° C | 30% | 993 hPa | 0 mm | - | - | - |
| 1777466229 | 13.89° C | 28% | 993.1 hPa | 0 mm | - | - | - |
| 1777465329 | 13.33° C | 33% | 993.3 hPa | 0 mm | - | - | - |
| 1777465030 | 13.33° C | 27% | 993.3 hPa | 0 mm | - | - | - |
| 1777464730 | 13.33° C | 30% | 993.5 hPa | 0 mm | - | - | - |
| 1777464127 | 13.33° C | 28% | 993.4 hPa | 0 mm | - | - | - |
| 1777463827 | 13.33° C | 27% | 993.5 hPa | 0 mm | - | - | - |
| 1777462626 | 13.33° C | 30% | 993.4 hPa | 0 mm | - | - | - |
| 1777462326 | 13.33° C | 27% | 993.6 hPa | 0 mm | - | - | - |
| 1777462025 | 13.33° C | 29% | 993.5 hPa | 0 mm | - | - | - |
| 1777461725 | 13.33° C | 27% | 993.7 hPa | 0 mm | - | - | - |
| 1777461427 | 13.33° C | 27% | 993.5 hPa | 0 mm | - | - | - |
| 1777460224 | 13.33° C | 28% | 993.7 hPa | 0 mm | - | - | - |
* Rain latest hour (hover to see other rain measurements)
** Current wind speed in m/s (hover to see current wind gust speed)